Temp
-17 -17 -18 -19 -18 -18 -19 -19 -19 -19 -19 -20 -18 -16 -15 -14 -13 -11 -11 -10 -10 -10 -9 -9 -9 -10 -10 -10 -10 -9 -8 -8 -8 -7 -7 -8 -8 -8 -7 -7 -7 -7 -7 -7
-17 -17 -18 -19 -18 -18 -19 -19 -19 -19 -19 -19 -19 -19 -15 -14 -13 -12 -12 -11 -10 -10 -9 -9 -9 -9 -10 -10 -10 -9 -9 -8 -8 -7 -8 -8 -8 -8 -8 -7 -7 -7 -7 -7
-17 -18 -17 -17 -18 -18 -18 -18 -19 -19 -19 -19 -19 -19 -17 -13 -13 -13 -12 -11 -11 -10 -10 -10 -9 -10 -10 -10 -10 -10 -10 -9 -8 -8 -8 -8 -8 -8 -7 -7 -7 -7 -7 -8
-17 -18 -17 -17 -18 -18 -18 -19 -19 -19 -19 -18 -20 -19 -18 -14 -13 -13 -12 -12 -11 -11 -10 -10 -10 -10 -11 -10 -10 -10 -10 -9 -9 -10 -9 -9 -8 -8 -8 -8 -7 -8 -9 -9
-17 -17 -17 -18 -18 -19 -19 -19 -19 -19 -19 -19 -19 -19 -17 -16 -13 -13 -12 -12 -11 -11 -10 -10 -10 -10 -11 -11 -10 -10 -9 -9 -9 -9 -9 -10 -9 -8 -8 -8 -8 -9 -10 -9
-17 -17 -18 -18 -18 -19 -19 -19 -19 -20 -20 -19 -18 -20 -17 -18 -14 -12 -12 -12 -12 -11 -11 -10 -10 -11 -11 -11 -10 -10 -10 -10 -10 -10 -10 -9 -9 -9 -9 -9 -9 -10 -10 -10
-18 -18 -18 -18 -19 -20 -19 -19 -20 -20 -20 -18 -20 -21 -18 -18 -14 -13 -12 -12 -12 -11 -11 -11 -11 -11 -11 -11 -10 -10 -10 -10 -10 -10 -10 -10 -9 -9 -9 -9 -9 -9 -10 -10
-17 -18 -18 -19 -19 -19 -19 -20 -20 -20 -20 -19 -20 -19 -17 -18 -15 -13 -13 -12 -12 -12 -11 -12 -12 -11 -11 -10 -11 -11 -10 -11 -10 -10 -10 -9 -9 -9 -9 -9 -10 -10 -10 -10
-18 -18 -18 -19 -19 -19 -20 -20 -20 -20 -20 -20 -20 -20 -18 -18 -17 -15 -14 -13 -13 -12 -12 -12 -12 -11 -11 -11 -11 -11 -11 -11 -10 -10 -10 -10 -10 -10 -10 -10 -10 -10 -10 -10
-18 -17 -18 -19 -20 -20 -20 -20 -21 -21 -21 -21 -21 -20 -20 -19 -18 -15 -13 -13 -13 -12 -12 -12 -11 -12 -11 -12 -12 -11 -11 -10 -10 -10 -10 -10 -10 -10 -10 -10 -10 -10 -10 -10
-18 -18 -18 -19 -20 -20 -21 -21 -21 -21 -21 -21 -21 -20 -20 -18 -17 -14 -13 -13 -12 -12 -13 -12 -12 -11 -11 -12 -12 -11 -11 -10 -10 -10 -10 -10 -10 -10 -10 -10 -10 -10 -10 -10
-18 -18 -19 -19 -20 -20 -21 -21 -21 -21 -21 -20 -20 -19 -20 -19 -16 -14 -13 -13 -13 -12 -13 -12 -11 -11 -12 -12 -12 -11 -11 -11 -11 -11 -10 -10 -10 -10 -10 -10 -10 -10 -10 -10
-18 -18 -19 -19 -19 -20 -21 -21 -21 -21 -21 -21 -21 -19 -21 -19 -18 -14 -14 -14 -14 -14 -12 -12 -12 -12 -12 -12 -11 -11 -11 -11 -11 -10 -10 -10 -10 -10 -10 -10 -10 -10 -10 -10
-18 -19 -19 -20 -20 -19 -20 -21 -21 -20 -20 -20 -20 -19 -20 -18 -17 -16 -15 -15 -14 -12 -13 -12 -12 -12 -12 -12 -11 -11 -11 -11 -11 -11 -10 -10 -10 -10 -10 -10 -10 -10 -10 -10
-18 -19 -20 -20 -20 -20 -20 -20 -20 -20 -20 -19 -20 -19 -19 -17 -15 -16 -16 -14 -14 -14 -13 -13 -12 -12 -12 -12 -12 -12 -12 -11 -11 -11 -10 -10 -10 -10 -11 -10 -10 -11 -11 -11
-18 -19 -19 -18 -19 -19 -20 -20 -20 -20 -19 -18 -18 -18 -17 -16 -15 -17 -15 -14 -14 -14 -13 -13 -13 -13 -13 -12 -12 -12 -11 -11 -11 -11 -11 -11 -11 -11 -11 -11 -11 -11 -11 -11
-19 -19 -18 -18 -18 -19 -18 -19 -18 -19 -18 -18 -18 -17 -16 -16 -14 -15 -15 -14 -14 -14 -13 -13 -13 -13 -13 -13 -13 -12 -12 -12 -12 -11 -11 -11 -11 -11 -11 -11 -11 -11 -11 -11
-18 -18 -18 -18 -18 -18 -19 -18 -18 -18 -18 -18 -17 -16 -14 -14 -15 -15 -15 -14 -14 -14 -13 -13 -13 -13 -13 -13 -13 -12 -12 -12 -12 -11 -11 -11 -12 -12 -12 -12 -12 -12 -12 -12
-18 -18 -18 -18 -18 -18 -18 -17 -17 -16 -16 -17 -15 -15 -15 -14 -14 -15 -15 -15 -14 -14 -14 -14 -13 -13 -13 -13 -13 -13 -12 -12 -12 -12 -12 -12 -12 -12 -12 -12 -12 -12 -12 -12
-17 -18 -18 -17 -17 -17 -17 -17 -17 -16 -16 -16 -16 -16 -15 -15 -15 -15 -15 -14 -14 -14 -14 -14 -14 -13 -13 -13 -13 -13 -13 -12 -12 -12 -12 -12 -12 -12 -12 -13 -13 -13 -13 -13
-18 -18 -18 -17 -17 -17 -18 -17 -16 -16 -15 -15 -15 -15 -15 -14 -14 -14 -15 -15 -15 -14 -14 -14 -14 -13 -13 -13 -13 -13 -13 -13 -13 -13 -12 -12 -13 -13 -13 -13 -13 -14 -13 -13
-17 -17 -17 -18 -16 -17 -17 -16 -16 -15 -14 -15 -15 -15 -15 -15 -14 -14 -14 -15 -14 -14 -14 -14 -13 -13 -13 -13 -13 -13 -13 -13 -13 -13 -13 -13 -13 -13 -13 -13 -14 -14 -14 -14
-18 -17 -17 -16 -16 -17 -17 -16 -16 -15 -14 -16 -15 -14 -15 -14 -14 -15 -14 -14 -13 -14 -14 -13 -13 -13 -13 -13 -13 -13 -13 -13 -13 -13 -13 -13 -13 -13 -14 -14 -14 -14 -14 -14
-17 -18 -17 -17 -17 -18 -17 -17 -15 -15 -15 -15 -14 -14 -14 -14 -14 -14 -14 -13 -13 -13 -13 -13 -14 -14 -14 -13 -13 -13 -13 -13 -14 -13 -13 -13 -13 -13 -14 -14 -14 -14 -14 -14
-17 -17 -17 -17 -17 -18 -18 -16 -15 -15 -16 -15 -14 -14 -15 -14 -14 -14 -13 -13 -13 -13 -13 -13 -13 -13 -13 -13 -13 -13 -13 -14 -13 -13 -13 -13 -14 -14 -14 -14 -14 -14 -14 -14
-17 -17 -18 -17 -16 -17 -16 -16 -15 -15 -14 -14 -14 -14 -14 -14 -14 -14 -14 -14 -14 -13 -13 -13 -13 -13 -13 -13 -13 -13 -13 -14 -13 -14 -14 -14 -14 -14 -14 -14 -14 -14 -14 -14
Height
5655 5653 5648 5646 5644 5643 5643 5643 5643 5644 5644 5643 5647 5652 5660 5675 5691 5709 5723 5734 5744 5758 5770 5781 5791 5803 5814 5822 5829 5836 5842 5847 5852 5854 5855 5857 5861 5863 5864 5864 5865 5866 5865 5864
5650 5645 5642 5637 5637 5635 5635 5636 5637 5638 5636 5635 5640 5636 5650 5659 5682 5695 5711 5722 5734 5747 5761 5773 5783 5795 5806 5814 5821 5827 5834 5840 5843 5846 5847 5851 5854 5856 5858 5859 5859 5859 5858 5857
5644 5641 5633 5632 5631 5628 5628 5628 5630 5629 5628 5629 5629 5628 5637 5655 5667 5682 5700 5713 5721 5737 5754 5766 5777 5788 5798 5806 5815 5820 5826 5831 5836 5838 5841 5843 5846 5849 5851 5852 5853 5852 5852 5852
5637 5632 5628 5626 5625 5621 5620 5621 5620 5620 5620 5622 5621 5622 5627 5643 5653 5671 5691 5702 5716 5730 5746 5757 5769 5781 5791 5801 5807 5814 5821 5826 5827 5832 5836 5840 5842 5844 5846 5846 5846 5847 5847 5847
5633 5625 5620 5619 5617 5615 5613 5613 5611 5610 5609 5609 5613 5614 5626 5627 5642 5663 5680 5697 5709 5722 5738 5750 5762 5774 5786 5793 5802 5809 5815 5820 5822 5825 5829 5832 5834 5837 5838 5840 5840 5840 5840 5840
5624 5617 5614 5611 5609 5607 5604 5603 5601 5600 5600 5598 5606 5604 5611 5616 5631 5658 5675 5690 5703 5716 5732 5744 5755 5766 5776 5785 5795 5802 5808 5813 5816 5820 5823 5825 5827 5828 5831 5832 5833 5836 5836 5836
5615 5610 5605 5603 5600 5598 5595 5594 5592 5591 5589 5593 5596 5595 5603 5611 5624 5644 5667 5683 5696 5709 5724 5737 5747 5758 5767 5778 5788 5798 5802 5806 5810 5815 5816 5818 5820 5823 5825 5827 5831 5833 5832 5830
5606 5603 5599 5595 5591 5588 5584 5585 5584 5581 5581 5585 5586 5583 5598 5606 5613 5633 5651 5671 5683 5697 5712 5728 5741 5749 5761 5771 5782 5791 5797 5802 5807 5808 5810 5813 5816 5820 5822 5826 5828 5827 5826 5825
5599 5595 5589 5584 5581 5578 5577 5575 5577 5571 5573 5572 5578 5578 5584 5592 5595 5609 5629 5649 5664 5685 5704 5721 5733 5744 5756 5767 5779 5786 5793 5797 5800 5800 5804 5808 5813 5816 5820 5823 5824 5824 5824 5823
5594 5585 5582 5574 5571 5570 5568 5567 5566 5565 5565 5563 5567 5570 5573 5577 5583 5601 5623 5641 5659 5679 5698 5714 5726 5739 5750 5763 5773 5781 5788 5790 5792 5795 5800 5805 5808 5812 5815 5817 5819 5820 5821 5819
5585 5578 5575 5568 5565 5563 5560 5559 5558 5556 5557 5556 5559 5562 5568 5568 5577 5598 5622 5642 5656 5674 5692 5706 5721 5735 5747 5758 5766 5776 5779 5784 5786 5792 5797 5800 5805 5808 5810 5813 5814 5815 5815 5815
5580 5572 5567 5564 5559 5556 5553 5551 5549 5548 5551 5550 5548 5545 5552 5561 5576 5601 5621 5639 5656 5672 5686 5703 5720 5732 5743 5752 5762 5769 5773 5778 5783 5787 5791 5796 5800 5803 5806 5808 5810 5811 5811 5811
5574 5568 5562 5558 5556 5551 5547 5547 5544 5544 5543 5545 5542 5538 5543 5552 5568 5597 5617 5634 5649 5661 5680 5702 5715 5727 5740 5750 5759 5764 5769 5774 5779 5781 5786 5791 5796 5798 5801 5803 5804 5805 5806 5805
5571 5566 5561 5559 5555 5550 5548 5544 5542 5541 5540 5540 5538 5536 5543 5554 5568 5589 5612 5626 5640 5663 5684 5699 5712 5725 5737 5746 5753 5759 5765 5769 5774 5778 5782 5787 5790 5794 5796 5798 5800 5801 5801 5800
5570 5564 5559 5556 5552 5549 5547 5545 5543 5541 5538 5536 5536 5538 5546 5556 5568 5588 5607 5622 5646 5665 5682 5699 5712 5723 5733 5740 5749 5755 5761 5765 5769 5774 5779 5782 5786 5789 5792 5793 5794 5795 5796 5795
5570 5565 5560 5558 5554 5552 5549 5545 5544 5543 5539 5537 5538 5546 5556 5565 5576 5589 5609 5634 5651 5667 5684 5697 5709 5719 5728 5737 5746 5752 5756 5760 5764 5770 5774 5778 5781 5784 5786 5788 5789 5790 5790 5789
5571 5565 5563 5561 5557 5555 5553 5549 5545 5541 5539 5540 5544 5553 5563 5577 5592 5602 5621 5639 5655 5671 5684 5696 5707 5717 5725 5734 5742 5747 5752 5756 5761 5765 5769 5773 5776 5779 5781 5783 5784 5784 5784 5783
5571 5566 5564 5562 5560 5558 5553 5547 5542 5538 5537 5542 5555 5564 5575 5583 5594 5611 5629 5646 5659 5673 5685 5696 5706 5714 5723 5731 5738 5744 5749 5754 5757 5762 5765 5768 5772 5774 5776 5777 5778 5778 5777 5776
5573 5569 5568 5565 5562 5561 5556 5549 5541 5537 5547 5552 5560 5566 5571 5594 5606 5618 5634 5649 5663 5675 5687 5696 5704 5713 5721 5728 5735 5741 5746 5749 5753 5757 5760 5763 5767 5769 5770 5771 5771 5770 5770 5769
5573 5571 5569 5566 5564 5563 5557 5552 5549 5548 5556 5562 5565 5577 5592 5602 5613 5624 5637 5652 5665 5677 5687 5694 5702 5710 5718 5725 5731 5736 5741 5746 5749 5752 5756 5760 5762 5763 5764 5765 5765 5764 5764 5763
5576 5573 5571 5569 5567 5565 5561 5557 5556 5558 5559 5569 5577 5583 5598 5610 5624 5634 5643 5654 5665 5676 5683 5691 5700 5708 5716 5721 5727 5732 5737 5742 5746 5749 5752 5755 5756 5757 5759 5759 5759 5758 5757 5755
5577 5574 5572 5570 5570 5569 5565 5563 5561 5563 5567 5577 5585 5596 5605 5616 5627 5637 5647 5656 5665 5674 5682 5691 5700 5706 5713 5718 5725 5730 5734 5738 5742 5745 5747 5749 5751 5753 5753 5753 5751 5750 5749 5747
5579 5576 5574 5574 5574 5571 5570 5569 5567 5571 5567 5583 5590 5601 5611 5621 5630 5639 5648 5656 5665 5674 5683 5691 5698 5705 5712 5717 5722 5727 5731 5735 5739 5741 5742 5744 5746 5746 5746 5746 5745 5744 5743 5741
5579 5576 5575 5576 5577 5575 5576 5574 5573 5576 5578 5587 5595 5606 5614 5625 5634 5643 5651 5658 5666 5674 5683 5690 5698 5704 5709 5714 5718 5722 5726 5730 5733 5736 5737 5738 5739 5739 5739 5738 5738 5738 5736 5733
5582 5580 5579 5579 5581 5581 5580 5579 5577 5578 5584 5593 5601 5609 5618 5628 5636 5645 5652 5658 5666 5673 5680 5688 5695 5700 5705 5710 5715 5717 5721 5725 5728 5729 5730 5731 5732 5732 5732 5732 5732 5730 5727 5725
5583 5583 5584 5583 5584 5586 5588 5585 5583 5581 5589 5600 5608 5615 5622 5630 5639 5647 5654 5661 5667 5673 5679 5685 5690 5696 5703 5707 5711 5714 5716 5719 5721 5723 5724 5725 5726 5726 5726 5725 5724 5723 5722 5719
Wind_Speed
30 25 23 24 27 27 27 25 21 22 30 31 37 71 78 76 73 71 66 69 69 62 61 59 64 66 60 57 54 52 53 48 44 45 47 46 40 39 38 39 40 41 42 42
27 23 25 31 28 28 26 28 25 24 28 32 29 41 75 78 75 73 67 67 68 64 60 57 57 64 64 60 59 54 52 52 51 52 53 48 41 40 42 43 45 44 43 43
25 18 28 28 27 26 25 24 23 27 31 32 33 36 58 81 79 74 68 64 69 66 58 56 55 61 63 64 59 51 51 54 53 57 55 52 46 46 46 48 48 46 43 43
24 24 28 25 21 27 28 26 30 35 37 35 32 30 35 78 82 75 69 64 66 65 57 55 54 58 62 60 57 57 53 54 56 46 51 48 47 49 50 48 44 40 39 40
26 27 27 23 22 26 29 30 33 33 32 36 41 42 18 57 85 77 71 63 67 65 57 56 53 62 63 62 57 54 51 49 48 45 44 42 34 35 42 41 38 37 36 36
30 31 25 25 25 26 30 32 33 30 30 35 30 40 29 33 83 79 70 64 66 64 57 57 56 62 66 61 51 51 51 47 45 45 39 34 34 36 36 36 35 34 36 36
34 27 28 29 29 29 33 31 28 30 32 29 23 31 33 22 75 79 70 65 66 65 59 60 59 63 62 58 52 49 42 43 41 36 36 35 35 34 32 31 27 26 28 29
32 25 29 29 28 32 29 27 27 33 33 27 24 37 29 20 60 78 73 68 69 68 65 68 68 69 61 51 47 48 42 39 34 36 37 35 34 28 26 19 18 23 17 23
29 34 34 33 36 27 23 24 22 35 37 34 29 35 38 38 50 76 81 77 73 72 67 65 66 65 57 50 50 45 37 34 36 38 36 31 26 22 16 16 16 19 18 14
32 37 32 26 19 17 22 21 25 29 33 32 24 27 32 37 44 80 82 77 77 72 68 66 63 60 53 50 46 40 34 38 39 37 32 26 24 18 17 16 16 16 16 14
36 35 34 22 15 21 21 17 21 27 26 28 19 22 19 35 51 83 80 74 76 71 67 67 62 55 51 49 46 42 38 39 38 32 28 27 23 21 18 18 17 16 17 15
31 35 27 14 17 16 15 17 16 18 17 23 29 11 6 22 64 83 79 71 69 69 68 65 58 56 54 51 45 39 35 33 28 27 27 25 23 22 21 20 19 17 19 20
28 30 23 18 21 20 12 14 13 13 22 21 27 12 27 42 56 82 76 69 70 71 69 62 59 57 55 47 43 36 32 27 23 26 26 24 24 24 22 21 21 22 21 22
25 21 16 17 16 22 19 15 10 13 20 23 18 2 40 55 61 73 73 75 72 69 62 62 60 55 49 43 38 32 28 27 25 26 24 24 23 24 23 23 23 23 22 23
20 17 12 12 19 16 9 12 8 16 23 14 11 21 47 54 79 73 76 76 69 63 60 58 53 48 43 40 34 28 27 27 25 26 26 25 24 25 23 23 24 24 25 25
21 11 14 17 17 19 14 12 13 9 15 18 19 46 42 50 75 65 75 69 67 62 58 54 48 43 39 34 27 25 25 26 26 25 25 25 26 26 24 24 25 28 28 25
18 10 10 13 13 12 13 9 19 18 17 16 40 40 45 53 72 67 68 68 66 60 56 51 45 39 36 28 26 24 24 24 22 21 24 25 24 24 24 26 30 29 28 27
14 9 12 12 12 14 24 22 23 19 7 47 54 41 51 55 58 62 65 65 60 54 51 46 42 38 35 31 27 26 27 24 21 24 25 26 25 24 26 28 30 27 26 26
11 8 11 8 12 17 22 24 32 37 41 51 52 44 42 47 51 60 62 61 56 52 47 43 41 39 34 30 27 27 24 23 24 26 27 25 23 24 27 29 27 25 25 24
12 9 10 10 9 14 21 29 14 24 45 53 41 43 40 47 52 58 58 57 53 49 44 45 43 38 34 31 28 26 26 27 28 28 27 26 25 26 27 24 23 21 23 25
9 7 9 7 11 16 16 23 15 31 34 51 43 42 43 46 47 50 51 49 46 45 47 45 39 34 32 31 29 28 29 29 29 29 27 26 28 26 22 23 23 24 26 29
6 4 3 5 6 11 10 31 22 41 47 45 44 42 43 45 46 47 47 46 46 45 44 39 35 34 35 32 30 30 29 29 30 29 29 27 23 20 22 23 24 25 26 27
4 2 5 4 6 9 15 27 17 47 36 51 47 47 44 45 44 45 46 44 43 41 39 37 39 35 29 30 31 31 30 30 28 26 22 20 20 20 21 21 21 23 25 28
2 1 9 7 12 15 17 16 24 43 31 49 49 49 46 45 44 41 42 43 42 40 40 40 36 32 32 32 31 31 31 27 21 21 19 17 18 20 20 20 22 25 28 28
5 6 8 11 14 15 21 21 20 27 48 49 47 47 44 40 40 41 42 41 39 38 38 37 35 36 35 32 27 23 23 23 22 19 18 18 18 18 18 20 23 24 25 26
3 9 12 14 14 12 14 22 21 28 43 44 43 39 40 38 35 36 36 35 35 36 36 35 37 39 37 35 31 25 28 24 20 17 17 17 16 17 19 20 21 23 24 25
Wind_Direction
300 297 294 282 275 264 260 263 265 266 258 250 240 224 222 220 217 214 212 214 218 213 213 210 209 210 210 210 211 218 222 228 232 235 236 237 243 254 262 268 270 270 268 270
308 307 282 273 276 275 266 256 258 261 260 258 244 241 219 221 214 212 209 213 215 214 210 209 208 208 211 211 211 217 224 227 229 232 236 241 247 253 262 269 271 269 269 272
311 296 288 286 280 278 271 263 261 261 257 249 251 248 226 216 215 213 207 209 213 213 207 207 204 203 205 216 214 218 227 225 228 231 232 238 248 259 264 266 270 267 270 272
316 289 298 297 286 269 266 266 264 268 256 242 250 257 236 212 216 210 205 206 210 211 204 202 200 195 204 210 216 222 228 232 231 243 247 250 255 253 256 266 266 272 272 273
316 308 298 298 276 263 269 261 271 274 264 249 243 251 224 220 213 207 205 202 207 208 200 198 196 196 203 210 215 221 227 231 242 242 242 255 259 257 260 262 259 261 263 266
310 303 299 291 288 271 270 275 281 269 262 256 247 246 222 219 209 207 203 200 204 205 197 194 196 193 202 209 211 216 224 230 231 238 246 250 251 252 253 251 256 262 269 278
310 302 298 294 288 280 280 282 277 266 257 268 254 249 239 222 204 203 201 199 202 203 196 192 194 194 200 206 209 216 223 224 231 240 243 242 246 250 254 257 269 272 286 277
311 308 299 286 290 280 276 274 260 254 260 265 264 253 237 234 206 198 194 194 200 199 196 190 193 199 202 201 208 218 219 228 233 234 237 239 242 247 250 263 267 292 339 341
317 316 304 291 288 285 270 263 270 257 255 252 245 254 240 239 203 193 190 192 195 195 195 190 195 199 199 202 209 214 220 222 224 231 235 237 240 240 241 248 269 290 314 313
316 315 315 306 286 278 268 271 258 257 260 263 255 246 245 226 215 189 188 190 193 192 193 191 194 194 195 200 206 211 214 220 222 227 231 232 230 234 241 250 266 289 302 317
317 312 320 310 287 287 292 262 266 261 266 253 245 248 247 237 197 184 184 189 193 190 191 192 192 194 197 201 205 210 219 219 222 223 225 224 227 236 244 254 267 278 294 299
320 313 322 332 340 320 303 290 278 252 245 247 253 149 110 190 180 177 183 186 191 191 190 193 192 194 198 203 208 210 214 218 223 225 224 225 231 240 248 259 269 277 282 286
332 333 324 328 336 319 328 297 276 248 242 239 238 244 170 155 169 176 180 181 187 191 192 190 193 196 201 205 207 210 215 222 222 223 223 225 234 243 253 262 274 282 283 288
332 334 328 326 314 296 303 322 309 247 230 233 231 75 167 163 171 176 176 177 186 188 187 189 194 197 203 204 208 211 215 220 223 222 224 230 240 249 254 262 270 276 280 287
336 340 3 358 12 9 328 283 261 237 220 239 296 158 164 164 173 172 175 180 184 184 183 188 192 195 199 202 202 208 216 220 224 224 228 237 244 247 254 261 268 275 279 282
353 5 16 17 358 347 325 274 202 232 303 335 116 150 149 163 175 168 178 179 183 184 185 188 191 194 198 200 200 206 213 220 223 226 230 236 241 246 254 259 269 271 277 282
2 15 30 10 5 346 347 324 325 308 313 322 150 143 155 170 176 171 173 179 183 184 186 189 190 193 200 202 202 206 212 219 225 229 234 237 244 247 252 262 267 270 277 279
16 42 42 17 355 343 330 339 353 326 345 143 151 147 155 175 171 170 174 180 180 183 188 190 193 198 204 206 211 211 216 224 232 237 240 243 244 251 260 263 270 275 278 275
26 47 41 358 351 339 337 1 18 118 134 146 159 167 142 168 167 169 174 178 180 183 188 195 200 205 211 215 216 217 225 231 237 240 246 252 258 262 266 271 272 270 270 274
7 27 27 39 17 351 344 29 51 115 147 150 150 134 149 156 161 167 172 178 181 186 192 203 208 211 211 214 219 224 226 228 232 237 245 251 253 262 270 267 268 272 276 279
19 29 30 52 37 343 357 18 108 155 145 158 168 148 145 149 158 170 170 173 179 186 194 201 205 208 212 214 216 219 220 224 231 237 242 248 258 263 261 266 278 288 281 284
9 22 26 78 34 341 23 51 108 135 136 155 154 156 150 150 157 167 171 174 178 188 191 192 196 199 203 206 213 216 218 222 226 236 244 249 251 264 279 280 272 273 278 280
43 126 166 119 59 330 323 36 97 152 136 148 152 155 152 157 160 166 173 183 187 191 192 193 194 200 203 206 210 217 223 226 230 232 240 250 264 271 266 268 271 276 285 291
2 290 152 131 74 20 20 51 105 161 153 145 155 157 158 162 165 173 177 184 188 192 191 195 195 195 202 210 217 216 218 221 227 232 243 255 262 258 261 271 283 288 290 293
64 125 140 102 80 43 19 79 97 138 155 156 153 158 160 165 169 179 185 189 193 197 199 199 201 202 202 205 212 214 211 219 230 237 241 246 251 259 272 280 285 295 303 303
175 143 116 104 104 57 30 26 93 149 138 156 155 158 165 169 179 183 188 193 197 201 203 203 204 203 208 216 227 232 227 222 225 231 238 243 256 268 277 287 295 299 300 303